Time,TemperatureF,DewpointF,PressureIn,WindDirection,WindDirectionDegrees,WindSpeedMPH,WindSpeedGustMPH,Humidity,HourlyPrecipIn,Conditions,Clouds,dailyrainin,SoftwareType,DateUTC
2017-07-26 00:00:00,83.7,71.1,30.05,SSW,192,0.0,4.0,66,0.00,,CLR,0.01,VWS V15.00,2017-07-26 05:00:00,
2017-07-26 00:05:00,83.5,70.9,30.05,SSW,209,2.0,5.0,66,0.00,,CLR,0.00,VWS V15.00,2017-07-26 05:05:00,
2017-07-26 00:10:00,83.3,70.8,30.05,SSE,150,3.0,6.0,66,0.00,,CLR,0.00,VWS V15.00,2017-07-26 05:10:00,
2017-07-26 00:15:00,83.2,71.1,30.05,SSW,202,2.0,4.0,67,0.00,,CLR,0.00,VWS V15.00,2017-07-26 05:15:00,
2017-07-26 00:20:00,83.0,70.9,30.05,West,277,2.0,2.0,67,0.00,,CLR,0.00,VWS V15.00,2017-07-26 05:20:00,
2017-07-26 00:25:00,82.9,71.3,30.05,SW,221,3.0,5.0,68,0.00,,CLR,0.00,VWS V15.00,2017-07-26 05:25:00,
2017-07-26 00:30:00,82.7,71.5,30.05,NE,51,3.0,5.0,69,0.00,,CLR,0.00,VWS V15.00,2017-07-26 05:30:00,
2017-07-26 00:35:00,82.5,71.7,30.05,NNW,331,2.0,3.0,70,0.00,,CLR,0.00,VWS V15.00,2017-07-26 05:35:00,
2017-07-26 00:40:00,82.4,72.1,30.05,SW,216,1.0,5.0,71,0.00,,CLR,0.00,VWS V15.00,2017-07-26 05:40:00,
2017-07-26 00:45:00,82.2,72.3,30.05,NW,315,1.0,10.0,72,0.00,,CLR,0.00,VWS V15.00,2017-07-26 05:45:00,
2017-07-26 00:50:00,82.1,72.6,30.05,NW,306,1.0,3.0,73,0.00,,CLR,0.00,VWS V15.00,2017-07-26 05:50:00,
2017-07-26 00:55:00,81.9,72.8,30.05,SSE,150,1.0,4.0,74,0.00,,CLR,0.00,VWS V15.00,2017-07-26 05:55:00,
2017-07-26 01:00:00,81.8,72.7,30.05,ESE,109,1.0,7.0,74,0.00,,CLR,0.00,VWS V15.00,2017-07-26 06:00:00,
2017-07-26 01:05:00,81.6,72.9,30.05,West,261,2.0,7.0,75,0.00,,CLR,0.00,VWS V15.00,2017-07-26 06:05:00,
2017-07-26 01:06:00,81.6,72.9,30.05,SW,214,2.0,7.0,75,0.00,,CLR,0.00,VWS V15.00,2017-07-26 06:06:00,
2017-07-26 01:11:00,81.4,73.1,30.05,West,281,2.0,3.0,76,0.00,,CLR,0.00,VWS V15.00,2017-07-26 06:11:00,
2017-07-26 01:16:00,81.4,73.5,30.05,SW,224,4.0,5.0,77,0.00,,CLR,0.00,VWS V15.00,2017-07-26 06:16:00,
2017-07-26 01:21:00,81.2,73.3,30.05,SW,236,1.0,3.0,77,0.00,,CLR,0.00,VWS V15.00,2017-07-26 06:21:00,
2017-07-26 01:26:00,81.2,73.7,30.04,SSW,197,1.0,3.0,78,0.00,,CLR,0.00,VWS V15.00,2017-07-26 06:26:00,
2017-07-26 01:31:00,81.0,73.5,30.04,SW,215,1.0,6.0,78,0.00,,CLR,0.00,VWS V15.00,2017-07-26 06:31:00,
2017-07-26 01:36:00,80.9,73.8,30.04,SSE,150,1.0,3.0,79,0.00,,CLR,0.00,VWS V15.00,2017-07-26 06:36:00,
2017-07-26 01:41:00,80.7,73.6,30.04,WSW,255,1.0,4.0,79,0.00,,CLR,0.00,VWS V15.00,2017-07-26 06:41:00,
2017-07-26 01:46:00,80.6,73.9,30.04,SW,236,1.0,4.0,80,0.00,,CLR,0.00,VWS V15.00,2017-07-26 06:46:00,
2017-07-26 01:51:00,80.5,73.8,30.04,SW,229,1.0,4.0,80,0.00,,CLR,0.00,VWS V15.00,2017-07-26 06:51:00,
2017-07-26 01:56:00,80.4,74.0,30.04,SW,226,2.0,7.0,81,0.00,,CLR,0.00,VWS V15.00,2017-07-26 06:56:00,
2017-07-26 02:01:00,80.3,73.9,30.03,South,182,7.0,7.0,81,0.00,,CLR,0.00,VWS V15.00,2017-07-26 07:01:00,
2017-07-26 02:06:00,80.2,74.2,30.03,West,265,0.0,4.0,82,0.00,,CLR,0.00,VWS V15.00,2017-07-26 07:06:00,
2017-07-26 02:11:00,80.1,74.1,30.03,South,180,0.0,3.0,82,0.00,,CLR,0.00,VWS V15.00,2017-07-26 07:11:00,
2017-07-26 02:16:00,80.1,74.1,30.03,SE,144,1.0,6.0,82,0.00,,CLR,0.00,VWS V15.00,2017-07-26 07:16:00,
2017-07-26 02:21:00,80.0,74.0,30.02,SSW,207,3.0,6.0,82,0.00,,CLR,0.00,VWS V15.00,2017-07-26 07:21:00,
2017-07-26 02:26:00,80.0,74.4,30.02,SW,223,2.0,5.0,83,0.00,,CLR,0.00,VWS V15.00,2017-07-26 07:26:00,
2017-07-26 02:31:00,80.0,74.4,30.02,West,261,0.0,5.0,83,0.00,,CLR,0.00,VWS V15.00,2017-07-26 07:31:00,
2017-07-26 02:36:00,79.9,74.3,30.02,SSW,202,2.0,5.0,83,0.00,,CLR,0.00,VWS V15.00,2017-07-26 07:36:00,
2017-07-26 02:41:00,79.8,74.5,30.02,SSW,209,3.0,5.0,84,0.00,,CLR,0.00,VWS V15.00,2017-07-26 07:41:00,
2017-07-26 02:46:00,79.8,74.5,30.02,SW,226,2.0,6.0,84,0.00,,CLR,0.00,VWS V15.00,2017-07-26 07:46:00,
2017-07-26 02:51:00,79.8,74.5,30.02,WSW,252,5.0,6.0,84,0.00,,CLR,0.00,VWS V15.00,2017-07-26 07:51:00,
2017-07-26 02:56:00,79.8,74.5,30.02,SSW,210,2.0,6.0,84,0.00,,CLR,0.00,VWS V15.00,2017-07-26 07:56:00,
2017-07-26 03:01:00,79.8,74.5,30.02,SW,225,3.0,9.0,84,0.00,,BKN015,0.00,VWS V15.00,2017-07-26 08:01:00,
2017-07-26 03:06:00,79.8,74.9,30.02,SW,215,3.0,4.0,85,0.00,,BKN015,0.00,VWS V15.00,2017-07-26 08:06:00,
2017-07-26 03:11:00,79.9,75.0,30.01,WSW,255,1.0,11.0,85,0.00,,BKN015,0.00,VWS V15.00,2017-07-26 08:11:00,
2017-07-26 03:16:00,79.9,75.0,30.01,SW,234,2.0,7.0,85,0.00,,BKN015,0.00,VWS V15.00,2017-07-26 08:16:00,
2017-07-26 03:21:00,79.9,75.0,30.02,ESE,110,2.0,9.0,85,0.00,,BKN015,0.00,VWS V15.00,2017-07-26 08:21:00,
2017-07-26 03:26:00,79.9,75.0,30.01,SW,232,4.0,10.0,85,0.00,,BKN015,0.00,VWS V15.00,2017-07-26 08:26:00,
2017-07-26 03:31:00,79.9,75.0,30.01,West,281,3.0,7.0,85,0.00,,BKN015,0.00,VWS V15.00,2017-07-26 08:31:00,
2017-07-26 03:36:00,79.8,74.9,30.01,South,186,4.0,5.0,85,0.00,,BKN015,0.00,VWS V15.00,2017-07-26 08:36:00,
2017-07-26 03:41:00,79.8,74.9,30.01,SSW,200,1.0,4.0,85,0.00,,BKN015,0.00,VWS V15.00,2017-07-26 08:41:00,
2017-07-26 03:46:00,79.7,74.8,30.01,SSW,207,1.0,6.0,85,0.00,,BKN015,0.00,VWS V15.00,2017-07-26 08:46:00,
2017-07-26 03:51:00,79.6,75.1,30.01,West,280,2.0,3.0,86,0.00,,BKN015,0.00,VWS V15.00,2017-07-26 08:51:00,
2017-07-26 03:56:00,79.6,75.1,30.01,WSW,244,2.0,2.0,86,0.00,,BKN015,0.00,VWS V15.00,2017-07-26 08:56:00,
2017-07-26 04:01:00,79.5,74.9,30.01,SW,221,1.0,4.0,86,0.00,,OVC013,0.00,VWS V15.00,2017-07-26 09:01:00,
2017-07-26 04:06:00,79.4,74.8,30.01,SW,217,0.0,2.0,86,0.00,,OVC013,0.00,VWS V15.00,2017-07-26 09:06:00,
2017-07-26 04:11:00,79.3,74.8,30.00,SW,227,2.0,4.0,86,0.00,,OVC013,0.00,VWS V15.00,2017-07-26 09:11:00,
2017-07-26 04:16:00,79.2,74.7,30.01,SW,218,3.0,3.0,86,0.00,,OVC013,0.00,VWS V15.00,2017-07-26 09:16:00,
2017-07-26 04:21:00,79.1,74.9,30.01,SSW,204,1.0,2.0,87,0.00,,OVC013,0.00,VWS V15.00,2017-07-26 09:21:00,
2017-07-26 04:26:00,79.1,74.9,30.01,SSW,209,0.0,2.0,87,0.00,,OVC013,0.00,VWS V15.00,2017-07-26 09:26:00,
2017-07-26 04:31:00,79.0,74.8,30.01,SSW,213,0.0,0.0,87,0.00,,OVC013,0.00,VWS V15.00,2017-07-26 09:31:00,
2017-07-26 04:36:00,78.9,74.7,30.01,SSW,213,0.0,0.0,87,0.00,,OVC013,0.00,VWS V15.00,2017-07-26 09:36:00,
2017-07-26 04:41:00,78.8,74.6,30.01,SW,214,0.0,0.0,87,0.00,,OVC013,0.00,VWS V15.00,2017-07-26 09:41:00,
2017-07-26 04:46:00,78.7,74.5,30.01,SW,214,1.0,2.0,87,0.00,,OVC013,0.00,VWS V15.00,2017-07-26 09:46:00,
2017-07-26 04:51:00,78.7,74.8,30.01,WSW,253,2.0,2.0,88,0.00,,OVC013,0.00,VWS V15.00,2017-07-26 09:51:00,
2017-07-26 04:56:00,78.6,74.8,30.01,SW,218,2.0,5.0,88,0.00,,OVC013,0.00,VWS V15.00,2017-07-26 09:56:00,
2017-07-26 05:01:00,78.5,74.7,30.01,SW,232,0.0,0.0,88,0.00,,SCT012,0.00,VWS V15.00,2017-07-26 10:01:00,
2017-07-26 05:06:00,78.4,74.6,30.02,SW,232,0.0,0.0,88,0.00,,SCT012,0.00,VWS V15.00,2017-07-26 10:06:00,
2017-07-26 05:11:00,78.3,74.5,30.02,SW,232,0.0,0.0,88,0.00,,SCT012,0.00,VWS V15.00,2017-07-26 10:11:00,
2017-07-26 05:16:00,78.2,74.4,30.02,SW,232,0.0,0.0,88,0.00,,SCT012,0.00,VWS V15.00,2017-07-26 10:16:00,
2017-07-26 05:21:00,78.1,74.3,30.02,SW,232,0.0,0.0,88,0.00,,SCT012,0.00,VWS V15.00,2017-07-26 10:21:00,
2017-07-26 05:26:00,78.0,74.5,30.02,SW,232,0.0,0.0,89,0.00,,SCT012,0.00,VWS V15.00,2017-07-26 10:26:00,
2017-07-26 05:31:00,77.9,74.4,30.02,SW,232,0.0,0.0,89,0.00,,SCT012,0.00,VWS V15.00,2017-07-26 10:31:00,
2017-07-26 05:36:00,77.8,74.3,30.02,SW,232,0.0,0.0,89,0.00,,SCT012,0.00,VWS V15.00,2017-07-26 10:36:00,
2017-07-26 05:41:00,77.6,74.4,30.03,SW,232,0.0,0.0,90,0.00,,SCT012,0.00,VWS V15.00,2017-07-26 10:41:00,
2017-07-26 05:46:00,77.5,74.3,30.03,SW,232,0.0,0.0,90,0.00,,SCT012,0.00,VWS V15.00,2017-07-26 10:46:00,
2017-07-26 05:51:00,77.5,74.3,30.03,SW,232,0.0,0.0,90,0.00,,SCT012,0.00,VWS V15.00,2017-07-26 10:51:00,
2017-07-26 05:56:00,77.4,74.2,30.03,WNW,293,0.0,0.0,90,0.00,,SCT012,0.00,VWS V15.00,2017-07-26 10:56:00,
2017-07-26 06:01:00,77.5,74.7,30.03,SW,217,1.0,4.0,91,0.00,,CLR,0.00,VWS V15.00,2017-07-26 11:01:00,
2017-07-26 06:06:00,77.5,74.7,30.03,WSW,244,2.0,6.0,91,0.00,,CLR,0.00,VWS V15.00,2017-07-26 11:06:00,
2017-07-26 06:11:00,77.6,74.8,30.04,SSW,210,0.0,4.0,91,0.00,,CLR,0.00,VWS V15.00,2017-07-26 11:11:00,
2017-07-26 06:16:00,77.7,74.9,30.04,South,186,0.0,2.0,91,0.00,,CLR,0.00,VWS V15.00,2017-07-26 11:16:00,
2017-07-26 06:21:00,77.8,75.0,30.04,SW,219,0.0,3.0,91,0.00,,CLR,0.00,VWS V15.00,2017-07-26 11:21:00,
2017-07-26 06:23:00,77.8,75.0,30.04,SW,219,0.0,1.0,91,0.00,,CLR,0.00,VWS V15.00,2017-07-26 11:23:00,
2017-07-26 06:28:00,77.8,75.0,30.04,WSW,246,0.0,0.0,91,0.00,,CLR,0.00,VWS V15.00,2017-07-26 11:28:00,
2017-07-26 06:33:00,77.8,75.0,30.05,WSW,251,0.0,0.0,91,0.00,,CLR,0.00,VWS V15.00,2017-07-26 11:33:00,
2017-07-26 06:38:00,77.8,75.0,30.05,South,186,0.0,1.0,91,0.00,,CLR,0.00,VWS V15.00,2017-07-26 11:38:00,
2017-07-26 06:43:00,77.8,75.0,30.05,SSW,200,1.0,1.0,91,0.00,,CLR,0.00,VWS V15.00,2017-07-26 11:43:00,
2017-07-26 06:48:00,77.8,75.0,30.05,WSW,237,0.0,0.0,91,0.00,,CLR,0.00,VWS V15.00,2017-07-26 11:48:00,
2017-07-26 06:53:00,77.8,75.0,30.05,SW,219,1.0,1.0,91,0.00,,CLR,0.00,VWS V15.00,2017-07-26 11:53:00,